• In Deutschland
  • Länderverzeichnis
  • Für 7 Tage
  • Wassertemperatur
  • Satellitenkarten
  • Wetterkarte
  • Widgets
  • user-avatar
    Anmelden

    Stündliche Wetter Cavalcante

    Heute, 19 August, Sonntag

    Zeit Temperatur Niederschläge Wind Luftdruck Luftfeuchtigkeit
    00:00 +23°C° 0,2 mm 2 m/S 694 mmHg 64%
    01:00 +23°C° 0,1 mm 2 m/S 693 mmHg 65%
    02:00 +22°C° 0,1 mm 3 m/S 693 mmHg 66%
    03:00 +21°C° 0 mm 2 m/S 693 mmHg 69%
    04:00 +21°C° 0,1 mm 3 m/S 693 mmHg 69%
    05:00 +21°C° 0,1 mm 3 m/S 693 mmHg 70%
    06:00 +20°C° 0,1 mm 3 m/S 693 mmHg 70%
    07:00 +22°C° 0 mm 3 m/S 694 mmHg 65%
    08:00 +23°C° 0 mm 4 m/S 695 mmHg 60%
    09:00 +25°C° 0 mm 4 m/S 695 mmHg 55%
    10:00 +27°C° 0 mm 4 m/S 695 mmHg 50%
    11:00 +28°C° 0 mm 4 m/S 695 mmHg 45%
    12:00 +30°C° 0 mm 3 m/S 695 mmHg 40%
    13:00 +30°C° 0,1 mm 3 m/S 695 mmHg 39%
    14:00 +30°C° 0,1 mm 3 m/S 694 mmHg 38%
    15:00 +31°C° 0,1 mm 3 m/S 694 mmHg 37%
    16:00 +30°C° 0,1 mm 3 m/S 694 mmHg 39%
    17:00 +29°C° 0,1 mm 2 m/S 694 mmHg 41%
    18:00 +28°C° 0,1 mm 2 m/S 693 mmHg 43%
    19:00 +27°C° 0 mm 3 m/S 694 mmHg 46%
    20:00 +26°C° 0 mm 3 m/S 694 mmHg 48%
    21:00 +25°C° 0 mm 3 m/S 694 mmHg 50%
    22:00 +25°C° 0 mm 3 m/S 695 mmHg 52%
    23:00 +25°C° 0 mm 3 m/S 695 mmHg 53%

    Morgen, 20 August, Montag

    Zeit Temperatur Niederschläge Wind Luftdruck Luftfeuchtigkeit
    00:00 +24°C° 0 mm 3 m/S 695 mmHg 54%
    01:00 +24°C° 0 mm 3 m/S 694 mmHg 56%
    02:00 +22°C° 0 mm 3 m/S 694 mmHg 58%
    03:00 +22°C° 0 mm 3 m/S 694 mmHg 60%
    04:00 +21°C° 0 mm 3 m/S 694 mmHg 61%
    05:00 +21°C° 0 mm 3 m/S 694 mmHg 63%
    06:00 +20°C° 0 mm 3 m/S 694 mmHg 64%
    07:00 +22°C° 0 mm 4 m/S 695 mmHg 59%
    08:00 +23°C° 0 mm 4 m/S 695 mmHg 54%
    09:00 +26°C° 0 mm 5 m/S 696 mmHg 49%
    10:00 +27°C° 0 mm 5 m/S 696 mmHg 44%
    11:00 +29°C° 0 mm 4 m/S 696 mmHg 38%
    12:00 +32°C° 0 mm 4 m/S 696 mmHg 32%
    13:00 +32°C° 0 mm 4 m/S 695 mmHg 30%
    14:00 +33°C° 0 mm 4 m/S 695 mmHg 28%
    15:00 +33°C° 0 mm 4 m/S 694 mmHg 27%
    16:00 +32°C° 0 mm 4 m/S 694 mmHg 29%
    17:00 +30°C° 0 mm 3 m/S 693 mmHg 31%
    18:00 +29°C° 0 mm 2 m/S 693 mmHg 33%
    19:00 +28°C° 0 mm 2 m/S 694 mmHg 35%
    20:00 +27°C° 0 mm 3 m/S 694 mmHg 38%
    21:00 +26°C° 0 mm 3 m/S 695 mmHg 40%
    22:00 +25°C° 0 mm 3 m/S 695 mmHg 42%
    23:00 +25°C° 0 mm 3 m/S 695 mmHg 45%

    übermorgen, 21 August, Dienstag

    Zeit Temperatur Niederschläge Wind Luftdruck Luftfeuchtigkeit
    00:00 +24°C° 0 mm 3 m/S 695 mmHg 47%
    01:00 +24°C° 0 mm 3 m/S 694 mmHg 48%
    02:00 +22°C° 0 mm 3 m/S 694 mmHg 50%
    03:00 +22°C° 0 mm 3 m/S 693 mmHg 51%
    04:00 +22°C° 0 mm 3 m/S 693 mmHg 52%
    05:00 +21°C° 0 mm 3 m/S 693 mmHg 53%
    06:00 +21°C° 0 mm 3 m/S 693 mmHg 54%
    07:00 +22°C° 0 mm 4 m/S 694 mmHg 51%
    08:00 +25°C° 0 mm 4 m/S 695 mmHg 49%
    09:00 +26°C° 0 mm 5 m/S 696 mmHg 47%
    10:00 +28°C° 0 mm 5 m/S 696 mmHg 43%
    11:00 +29°C° 0 mm 4 m/S 696 mmHg 38%
    12:00 +32°C° 0 mm 4 m/S 696 mmHg 34%
    13:00 +32°C° 0 mm 4 m/S 695 mmHg 32%
    14:00 +33°C° 0 mm 4 m/S 694 mmHg 30%
    15:00 +33°C° 0 mm 4 m/S 693 mmHg 28%
    16:00 +31°C° 0 mm 3 m/S 693 mmHg 30%
    17:00 +30°C° 0 mm 3 m/S 693 mmHg 32%
    18:00 +29°C° 0 mm 2 m/S 693 mmHg 34%
    19:00 +28°C° 0 mm 2 m/S 693 mmHg 36%
    20:00 +27°C° 0 mm 3 m/S 694 mmHg 38%
    21:00 +26°C° 0 mm 3 m/S 694 mmHg 39%
    22:00 +26°C° 0 mm 3 m/S 694 mmHg 42%
    23:00 +25°C° 0 mm 3 m/S 694 mmHg 45%

    22 August, Mittwoch

    Zeit Temperatur Niederschläge Wind Luftdruck Luftfeuchtigkeit
    00:00 +25°C° 0 mm 3 m/S 694 mmHg 47%
    01:00 +24°C° 0 mm 3 m/S 694 mmHg 50%
    02:00 +24°C° 0 mm 3 m/S 694 mmHg 53%
    03:00 +22°C° 0 mm 3 m/S 693 mmHg 56%
    04:00 +22°C° 0 mm 3 m/S 693 mmHg 58%
    05:00 +22°C° 0 mm 3 m/S 694 mmHg 60%
    06:00 +21°C° 0 mm 3 m/S 694 mmHg 61%
    07:00 +23°C° 0 mm 4 m/S 695 mmHg 58%
    08:00 +25°C° 0 mm 4 m/S 695 mmHg 54%
    09:00 +26°C° 0 mm 5 m/S 696 mmHg 50%
    10:00 +28°C° 0 mm 5 m/S 696 mmHg 45%
    11:00 +29°C° 0 mm 5 m/S 696 mmHg 39%
    12:00 +32°C° 0 mm 4 m/S 695 mmHg 34%
    13:00 +32°C° 0 mm 4 m/S 695 mmHg 33%
    14:00 +31°C° 0 mm 3 m/S 694 mmHg 32%
    15:00 +31°C° 0 mm 3 m/S 693 mmHg 31%
    16:00 +31°C° 0 mm 3 m/S 693 mmHg 32%
    17:00 +30°C° 0 mm 2 m/S 693 mmHg 34%
    18:00 +29°C° 0 mm 2 m/S 693 mmHg 35%
    19:00 +28°C° 0 mm 2 m/S 693 mmHg 38%
    20:00 +27°C° 0 mm 2 m/S 693 mmHg 40%
    21:00 +26°C° 0 mm 3 m/S 693 mmHg 42%
    22:00 +26°C° 0 mm 3 m/S 693 mmHg 43%
    23:00 +26°C° 0 mm 3 m/S 693 mmHg 44%

    23 August, Donnerstag

    Zeit Temperatur Niederschläge Wind Luftdruck Luftfeuchtigkeit
    00:00 +25°C° 0 mm 3 m/S 693 mmHg 45%
    01:00 +25°C° 0 mm 3 m/S 693 mmHg 47%
    02:00 +24°C° 0 mm 3 m/S 692 mmHg 49%
    03:00 +24°C° 0 mm 3 m/S 692 mmHg 51%
    04:00 +22°C° 0 mm 3 m/S 692 mmHg 53%
    05:00 +22°C° 0 mm 3 m/S 692 mmHg 55%
    06:00 +22°C° 0 mm 4 m/S 693 mmHg 57%
    07:00 +23°C° 0 mm 4 m/S 693 mmHg 54%
    08:00 +25°C° 0 mm 4 m/S 694 mmHg 52%
    09:00 +26°C° 0 mm 5 m/S 695 mmHg 49%
    10:00 +28°C° 0 mm 5 m/S 694 mmHg 44%
    11:00 +29°C° 0 mm 4 m/S 694 mmHg 39%
    12:00 +32°C° 0 mm 4 m/S 694 mmHg 34%
    13:00 +32°C° 0 mm 4 m/S 693 mmHg 33%
    14:00 +31°C° 0 mm 3 m/S 692 mmHg 32%
    15:00 +31°C° 0 mm 3 m/S 692 mmHg 32%
    16:00 +30°C° 0 mm 3 m/S 692 mmHg 33%
    17:00 +29°C° 0 mm 2 m/S 692 mmHg 34%
    18:00 +29°C° 0 mm 2 m/S 692 mmHg 35%
    19:00 +28°C° 0 mm 2 m/S 692 mmHg 37%
    20:00 +27°C° 0 mm 2 m/S 692 mmHg 39%
    21:00 +26°C° 0 mm 2 m/S 693 mmHg 41%
    22:00 +26°C° 0 mm 3 m/S 693 mmHg 42%
    23:00 +25°C° 0 mm 3 m/S 693 mmHg 43%

    24 August, Freitag

    Zeit Temperatur Niederschläge Wind Luftdruck Luftfeuchtigkeit
    00:00 +25°C° 0 mm 3 m/S 693 mmHg 44%
    01:00 +25°C° 0 mm 3 m/S 692 mmHg 46%
    02:00 +24°C° 0 mm 3 m/S 692 mmHg 48%
    03:00 +23°C° 0 mm 4 m/S 692 mmHg 49%
    04:00 +23°C° 0 mm 4 m/S 692 mmHg 51%
    05:00 +22°C° 0 mm 4 m/S 692 mmHg 52%
    06:00 +22°C° 0 mm 4 m/S 693 mmHg 54%
    07:00 +23°C° 0 mm 4 m/S 693 mmHg 51%
    08:00 +25°C° 0 mm 5 m/S 694 mmHg 49%
    09:00 +26°C° 0 mm 5 m/S 695 mmHg 46%
    10:00 +28°C° 0 mm 5 m/S 694 mmHg 42%
    11:00 +29°C° 0 mm 4 m/S 694 mmHg 38%
    12:00 +32°C° 0 mm 4 m/S 694 mmHg 33%
    13:00 +32°C° 0 mm 4 m/S 693 mmHg 32%
    14:00 +33°C° 0 mm 4 m/S 693 mmHg 30%
    15:00 +33°C° 0 mm 3 m/S 692 mmHg 29%
    16:00 +31°C° 0 mm 3 m/S 692 mmHg 30%
    17:00 +30°C° 0 mm 3 m/S 692 mmHg 32%
    18:00 +29°C° 0 mm 2 m/S 692 mmHg 33%
    19:00 +28°C° 0 mm 2 m/S 692 mmHg 35%
    20:00 +27°C° 0 mm 2 m/S 693 mmHg 38%
    21:00 +26°C° 0 mm 2 m/S 693 mmHg 40%
    22:00 +26°C° 0 mm 2 m/S 693 mmHg 40%
    23:00 +25°C° 0 mm 3 m/S 693 mmHg 41%
    Mehr zeigen